148  
AXUS43 KGID 221802  
MISGRI  
 
GID CWA HOURLY WEATHER ROUNDUP  
NATIONAL WEATHER SERVICE HASTINGS NE  
100 PM CDT FRI OCT 22 2021  
 
NOTE: "FAIR" INDICATES FEW OR NO CLOUDS BELOW 12,000 FEET WITH NO  
SIGNIFICANT WEATHER AND/OR OBSTRUCTIONS TO VISIBILITY.  
   
..SOUTH CENTRAL NEBRASKA
 
 
 
CITY SKY/WX TMP DP RH WIND PRES REMARKS  
GRAND ISLAND SUNNY 64 40 41 S7 29.97F  
KEARNEY SUNNY 64 41 42 SW7 29.96F  
HASTINGS SUNNY 64 41 42 SW6 29.98F  
ORD SUNNY 61 42 49 E5 29.95F  
YORK SUNNY 59 43 55 S10 30.00F  
AURORA SUNNY 64 42 45 S8 29.99F  
LEXINGTON SUNNY 64 39 39 W7 29.97F  
HOLDREGE SUNNY 65 36 33 SW12 29.97F  
HEBRON SUNNY 66 43 43 S6 30.00F  
   
..NEBRASKA PANHANDLE
 
 
 
CITY SKY/WX TMP DP RH WIND PRES REMARKS  
CHADRON SUNNY 62 38 40 VRB3 30.01F  
ALLIANCE SUNNY 65 38 36 W8 30.01F  
SCOTTSBLUFF SUNNY 65 36 34 W10 30.02F  
SIDNEY SUNNY 70 32 24 NW10 30.02F  
   
..WESTERN AND NORTH CENTRAL NEBRASKA
 
 
 
CITY SKY/WX TMP DP RH WIND PRES REMARKS  
VALENTINE SUNNY 58 38 47 NE10 30.00S  
AINSWORTH SUNNY 54 37 53 NE8 30.00S  
ONEILL SUNNY 51 40 65 E10 30.00F  
BROKEN BOW SUNNY 69 39 33 N9 29.95F  
IMPERIAL SUNNY 74 32 21 NW10 29.99F  
NORTH PLATTE SUNNY 66 42 41 W3 29.97F  
MCCOOK SUNNY 67 36 31 W10 29.98F  
   
..EASTERN NEBRASKA
 
 
 
CITY SKY/WX TMP DP RH WIND PRES REMARKS  
NORFOLK PTSUNNY 54 39 57 E12 30.04F  
SO SIOUX CITY PTSUNNY 48 37 65 E5 30.10F  
TEKAMAH PTSUNNY 51 40 65 VRB5 30.10S  
COLUMBUS PTSUNNY 54 42 64 E13 30.04F  
ALBION PTSUNNY 55 42 63 SE8 30.01S  
OMAHA EPPLEY PTSUNNY 53 41 63 CALM 30.09F  
OFFUTT AFB PTSUNNY 53 39 60 SE5 30.10F  
MILLARD MOSUNNY 51 41 66 SE5 30.08S  
LINCOLN MOSUNNY 58 41 53 VRB6 30.04F  
NEBRASKA CITY PTSUNNY 55 42 61 SE6 30.05F  
BEATRICE SUNNY 62 41 46 SW10 30.01F  
FALLS CITY MOSUNNY 60 42 51 SE9 30.04F  
   
..NORTHERN KANSAS
 
 
 
CITY SKY/WX TMP DP RH WIND PRES REMARKS  
GOODLAND SUNNY 75 28 17 W8G17 30.02F  
HILL CITY SUNNY 71 37 28 SW6 30.00F  
NORTON FAIR 73 36 25 W7 30.01F  
PHILLIPSBURG SUNNY 68 36 30 S3 29.99F  
OBERLIN FAIR 72 35 26 W9 30.04F  
SMITH CENTER SUNNY 64 39 39 SW6 30.00F  
HAYS SUNNY 69 46 43 S9 30.01F  
RUSSELL SUNNY 71 45 39 S14 29.99F  
CONCORDIA SUNNY 70 43 37 S9 29.99F  
SALINA SUNNY 72 46 39 SW16 30.00F  
TOPEKA SUNNY 66 44 45 SE7 30.05F  
 
CLICK HERE TO GO TO PREVIOUS BULLETINS.

The Nexlab NE Page
The Nexlab KS Page Main Text Page